{"data":{"norad_id":63201,"epoch":"2026-05-25T00:10:50.503008Z","epoch_age_seconds":81163,"freshness":"FRESH","line1":"1 63201U 25048U   26145.00752897  .00032781  00000+0  11935-2 0  9998","line2":"2 63201  43.0027  14.3423 0001257 279.5425  80.5285 15.27633477 68766","mean_motion":15.27633477,"eccentricity":0.0001257,"inclination_deg":43.0027,"raan_deg":14.3423,"arg_perigee_deg":279.5425,"mean_anomaly_deg":80.5285,"bstar":0.0011935,"rev_number":6876,"period_min":94.263448770965,"perigee_km":482.02654037012,"apogee_km":483.75140229932,"semimajor_km":6861.0259713347,"source":"CELESTRAK","updated_at":"2026-05-25T13:38:19.922970Z"}}